owner,sensor,date,latitude,longitude,vertical_datum,sea_water_temperature,qcFlag
ADCP,ioos:station:wmo:42388:1,2021-04-01T00:09:00Z,27.7297,-91.1086,10.8,23.2,11111222
ADCP,ioos:station:wmo:42388:1,2021-04-01T00:19:00Z,27.7297,-91.1086,10.8,23.2,11111222
ADCP,ioos:station:wmo:42388:1,2021-04-01T00:29:00Z,27.7297,-91.1086,10.9,23.2,11111222
ADCP,ioos:station:wmo:42388:1,2021-04-01T00:39:00Z,27.7297,-91.1086,11.2,23.2,11111222
ADCP,ioos:station:wmo:42388:1,2021-04-01T00:49:00Z,27.7297,-91.1086,10.8,23.2,11111222
ADCP,ioos:station:wmo:42388:1,2021-04-01T00:59:00Z,27.7297,-91.1086,10.8,23.2,11111222
ADCP,ioos:station:wmo:42388:1,2021-04-01T01:09:00Z,27.7297,-91.1086,10.8,23.2,11111222
ADCP,ioos:station:wmo:42388:1,2021-04-01T01:19:00Z,27.7297,-91.1086,10.7,23.2,11111222
ADCP,ioos:station:wmo:42388:1,2021-04-01T01:29:00Z,27.7297,-91.1086,10.9,23.2,11111222
ADCP,ioos:station:wmo:42388:1,2021-04-01T01:39:00Z,27.7297,-91.1086,10.8,23.2,11111222
ADCP,ioos:station:wmo:42388:1,2021-04-01T01:49:00Z,27.7297,-91.1086,10.9,23.2,11111222
ADCP,ioos:station:wmo:42388:1,2021-04-01T01:59:00Z,27.7297,-91.1086,10.9,23.2,11111222
ADCP,ioos:station:wmo:42388:1,2021-04-01T02:09:00Z,27.7297,-91.1086,10.7,23.2,11111222
ADCP,ioos:station:wmo:42388:1,2021-04-01T02:19:00Z,27.7297,-91.1086,10.8,23.2,11111222
ADCP,ioos:station:wmo:42388:1,2021-04-01T02:29:00Z,27.7297,-91.1086,10.7,23.2,11111222
ADCP,ioos:station:wmo:42388:1,2021-04-01T02:39:00Z,27.7297,-91.1086,10.8,23.2,11111222
ADCP,ioos:station:wmo:42388:1,2021-04-01T02:49:00Z,27.7297,-91.1086,10.7,23.2,11111222
ADCP,ioos:station:wmo:42388:1,2021-04-01T02:59:00Z,27.7297,-91.1086,10.8,23.2,11111222
ADCP,ioos:station:wmo:42388:1,2021-04-01T03:09:00Z,27.7297,-91.1086,10.7,23.2,11111222
ADCP,ioos:station:wmo:42388:1,2021-04-01T03:19:00Z,27.7297,-91.1086,10.9,23.3,11111222
ADCP,ioos:station:wmo:42388:1,2021-04-01T03:29:00Z,27.7297,-91.1086,10.8,23.3,11111222
ADCP,ioos:station:wmo:42388:1,2021-04-01T03:39:00Z,27.7297,-91.1086,10.8,23.2,11111222
ADCP,ioos:station:wmo:42388:1,2021-04-01T03:49:00Z,27.7297,-91.1086,10.8,23.2,11111222
ADCP,ioos:station:wmo:42388:1,2021-04-01T03:59:00Z,27.7297,-91.1086,10.8,23.2,11111222
ADCP,ioos:station:wmo:42388:1,2021-04-01T04:09:00Z,27.7297,-91.1086,10.8,23.2,11111222
ADCP,ioos:station:wmo:42388:1,2021-04-01T04:19:00Z,27.7297,-91.1086,10.8,23.2,11111222
ADCP,ioos:station:wmo:42388:1,2021-04-01T04:29:00Z,27.7297,-91.1086,10.8,23.2,11111222
ADCP,ioos:station:wmo:42388:1,2021-04-01T04:39:00Z,27.7297,-91.1086,10.8,23.2,11111222
ADCP,ioos:station:wmo:42388:1,2021-04-01T04:49:00Z,27.7297,-91.1086,10.7,23.2,11111222
ADCP,ioos:station:wmo:42388:1,2021-04-01T04:59:00Z,27.7297,-91.1086,10.8,23.2,11111222
ADCP,ioos:station:wmo:42388:1,2021-04-01T05:09:00Z,27.7297,-91.1086,11.0,23.3,11111222
ADCP,ioos:station:wmo:42388:1,2021-04-01T05:19:00Z,27.7297,-91.1086,10.8,23.3,11111222
ADCP,ioos:station:wmo:42388:1,2021-04-01T05:29:00Z,27.7297,-91.1086,10.9,23.3,11111222
ADCP,ioos:station:wmo:42388:1,2021-04-01T05:39:00Z,27.7297,-91.1086,10.9,23.3,11111222
ADCP,ioos:station:wmo:42388:1,2021-04-01T05:49:00Z,27.7297,-91.1086,11.0,23.3,11111222
ADCP,ioos:station:wmo:42388:1,2021-04-01T05:59:00Z,27.7297,-91.1086,11.0,23.3,11111222
ADCP,ioos:station:wmo:42388:1,2021-04-01T06:09:00Z,27.7297,-91.1086,11.0,23.4,11111222
ADCP,ioos:station:wmo:42388:1,2021-04-01T06:19:00Z,27.7297,-91.1086,11.1,23.4,11111222
ADCP,ioos:station:wmo:42388:1,2021-04-01T06:29:00Z,27.7297,-91.1086,10.9,23.4,11111222
ADCP,ioos:station:wmo:42388:1,2021-04-01T06:39:00Z,27.7297,-91.1086,10.9,23.4,11111222
ADCP,ioos:station:wmo:42388:1,2021-04-01T06:49:00Z,27.7297,-91.1086,11.0,23.4,11111222
ADCP,ioos:station:wmo:42388:1,2021-04-01T06:59:00Z,27.7297,-91.1086,10.9,23.4,11111222
ADCP,ioos:station:wmo:42388:1,2021-04-01T07:10:00Z,27.7297,-91.1086,11.0,23.4,11111222
ADCP,ioos:station:wmo:42388:1,2021-04-01T07:20:00Z,27.7297,-91.1086,11.0,23.3,11111222
ADCP,ioos:station:wmo:42388:1,2021-04-01T07:30:00Z,27.7297,-91.1086,11.1,23.3,11111222
ADCP,ioos:station:wmo:42388:1,2021-04-01T07:40:00Z,27.7297,-91.1086,11.1,23.3,11111222
ADCP,ioos:station:wmo:42388:1,2021-04-01T07:50:00Z,27.7297,-91.1086,10.9,23.3,11111222
ADCP,ioos:station:wmo:42388:1,2021-04-01T08:00:00Z,27.7297,-91.1086,10.9,23.3,11111222
ADCP,ioos:station:wmo:42388:1,2021-04-01T08:10:00Z,27.7297,-91.1086,10.9,23.3,11111222
ADCP,ioos:station:wmo:42388:1,2021-04-01T08:20:00Z,27.7297,-91.1086,11.0,23.3,11111222
ADCP,ioos:station:wmo:42388:1,2021-04-01T08:30:00Z,27.7297,-91.1086,11.1,23.3,11111222
ADCP,ioos:station:wmo:42388:1,2021-04-01T08:40:00Z,27.7297,-91.1086,10.9,23.3,11111222
ADCP,ioos:station:wmo:42388:1,2021-04-01T08:50:00Z,27.7297,-91.1086,11.0,23.3,11111222
ADCP,ioos:station:wmo:42388:1,2021-04-01T09:00:00Z,27.7297,-91.1086,10.9,23.3,11111222
ADCP,ioos:station:wmo:42388:1,2021-04-01T09:10:00Z,27.7297,-91.1086,10.9,23.3,11111222
ADCP,ioos:station:wmo:42388:1,2021-04-01T09:20:00Z,27.7297,-91.1086,10.9,23.2,11111222
ADCP,ioos:station:wmo:42388:1,2021-04-01T09:30:00Z,27.7297,-91.1086,10.9,23.2,11111222
ADCP,ioos:station:wmo:42388:1,2021-04-01T09:40:00Z,27.7297,-91.1086,11.0,23.2,11111222
ADCP,ioos:station:wmo:42388:1,2021-04-01T09:50:00Z,27.7297,-91.1086,10.8,23.2,11111222
ADCP,ioos:station:wmo:42388:1,2021-04-01T10:00:00Z,27.7297,-91.1086,10.6,23.2,11111222
ADCP,ioos:station:wmo:42388:1,2021-04-01T10:10:00Z,27.7297,-91.1086,10.9,23.2,11111222
ADCP,ioos:station:wmo:42388:1,2021-04-01T10:20:00Z,27.7297,-91.1086,10.8,23.2,11111222
ADCP,ioos:station:wmo:42388:1,2021-04-01T10:30:00Z,27.7297,-91.1086,10.6,23.2,11111222
ADCP,ioos:station:wmo:42388:1,2021-04-01T10:40:00Z,27.7297,-91.1086,11.0,23.2,11111222
ADCP,ioos:station:wmo:42388:1,2021-04-01T10:50:00Z,27.7297,-91.1086,10.9,23.2,11111222
ADCP,ioos:station:wmo:42388:1,2021-04-01T11:00:00Z,27.7297,-91.1086,10.7,23.2,11111222
ADCP,ioos:station:wmo:42388:1,2021-04-01T11:10:00Z,27.7297,-91.1086,10.9,23.2,11111222
ADCP,ioos:station:wmo:42388:1,2021-04-01T11:20:00Z,27.7297,-91.1086,10.8,23.2,11111222
ADCP,ioos:station:wmo:42388:1,2021-04-01T11:30:00Z,27.7297,-91.1086,10.9,23.2,11111222
ADCP,ioos:station:wmo:42388:1,2021-04-01T11:40:00Z,27.7297,-91.1086,10.6,23.2,11111222
ADCP,ioos:station:wmo:42388:1,2021-04-01T11:50:00Z,27.7297,-91.1086,10.9,23.2,11111222
ADCP,ioos:station:wmo:42388:1,2021-04-01T12:00:00Z,27.7297,-91.1086,10.9,23.2,11111222
ADCP,ioos:station:wmo:42388:1,2021-04-01T12:10:00Z,27.7297,-91.1086,10.8,23.2,11111222
ADCP,ioos:station:wmo:42388:1,2021-04-01T12:20:00Z,27.7297,-91.1086,10.7,23.2,11111222
ADCP,ioos:station:wmo:42388:1,2021-04-01T12:30:00Z,27.7297,-91.1086,10.9,23.2,11111222
ADCP,ioos:station:wmo:42388:1,2021-04-01T12:40:00Z,27.7297,-91.1086,11.0,23.2,11111222
ADCP,ioos:station:wmo:42388:1,2021-04-01T12:50:00Z,27.7297,-91.1086,10.7,23.2,11111222
ADCP,ioos:station:wmo:42388:1,2021-04-01T13:00:00Z,27.7297,-91.1086,11.0,23.1,11111222
ADCP,ioos:station:wmo:42388:1,2021-04-01T13:10:00Z,27.7297,-91.1086,10.8,23.2,11111222
ADCP,ioos:station:wmo:42388:1,2021-04-01T13:20:00Z,27.7297,-91.1086,10.8,23.1,11111222
ADCP,ioos:station:wmo:42388:1,2021-04-01T13:30:00Z,27.7297,-91.1086,10.8,23.2,11111222
ADCP,ioos:station:wmo:42388:1,2021-04-01T13:40:00Z,27.7297,-91.1086,10.4,23.2,11111222
ADCP,ioos:station:wmo:42388:1,2021-04-01T13:50:00Z,27.7297,-91.1086,10.8,23.2,11111222
ADCP,ioos:station:wmo:42388:1,2021-04-01T14:00:00Z,27.7297,-91.1086,10.7,23.2,11111222
ADCP,ioos:station:wmo:42388:1,2021-04-01T14:10:00Z,27.7297,-91.1086,10.9,23.1,11111222
ADCP,ioos:station:wmo:42388:1,2021-04-01T14:20:00Z,27.7297,-91.1086,10.8,23.1,11111222
ADCP,ioos:station:wmo:42388:1,2021-04-01T14:30:00Z,27.7297,-91.1086,10.8,23.1,11111222
ADCP,ioos:station:wmo:42388:1,2021-04-01T14:40:00Z,27.7297,-91.1086,10.7,23.1,11111222
ADCP,ioos:station:wmo:42388:1,2021-04-01T14:50:00Z,27.7297,-91.1086,10.9,23.1,11111222
ADCP,ioos:station:wmo:42388:1,2021-04-01T15:00:00Z,27.7297,-91.1086,11.0,23.1,11111222
ADCP,ioos:station:wmo:42388:1,2021-04-01T15:10:00Z,27.7297,-91.1086,10.8,23.1,11111222
ADCP,ioos:station:wmo:42388:1,2021-04-01T15:20:00Z,27.7297,-91.1086,10.6,23.1,11111222
ADCP,ioos:station:wmo:42388:1,2021-04-01T15:30:00Z,27.7297,-91.1086,10.6,23.1,11111222
ADCP,ioos:station:wmo:42388:1,2021-04-01T15:40:00Z,27.7297,-91.1086,10.8,23.1,11111222
ADCP,ioos:station:wmo:42388:1,2021-04-01T15:50:00Z,27.7297,-91.1086,10.9,23.2,11111222
ADCP,ioos:station:wmo:42388:1,2021-04-01T16:00:00Z,27.7297,-91.1086,10.8,23.2,11111222
ADCP,ioos:station:wmo:42388:1,2021-04-01T16:10:00Z,27.7297,-91.1086,10.7,23.2,11111222
ADCP,ioos:station:wmo:42388:1,2021-04-01T16:20:00Z,27.7297,-91.1086,10.7,23.1,11111222
ADCP,ioos:station:wmo:42388:1,2021-04-01T16:30:00Z,27.7297,-91.1086,10.7,23.1,11111222
ADCP,ioos:station:wmo:42388:1,2021-04-01T16:40:00Z,27.7297,-91.1086,10.7,23.1,11111222
ADCP,ioos:station:wmo:42388:1,2021-04-01T16:50:00Z,27.7297,-91.1086,10.8,23.1,11111222
ADCP,ioos:station:wmo:42388:1,2021-04-01T17:00:00Z,27.7297,-91.1086,10.8,23.1,11111222
ADCP,ioos:station:wmo:42388:1,2021-04-01T17:10:00Z,27.7297,-91.1086,10.8,23.2,11111222
ADCP,ioos:station:wmo:42388:1,2021-04-01T17:20:00Z,27.7297,-91.1086,10.9,23.2,11111222
ADCP,ioos:station:wmo:42388:1,2021-04-01T17:30:00Z,27.7297,-91.1086,10.9,23.3,11111222
ADCP,ioos:station:wmo:42388:1,2021-04-01T17:40:00Z,27.7297,-91.1086,11.1,23.3,11111222
ADCP,ioos:station:wmo:42388:1,2021-04-01T17:50:00Z,27.7297,-91.1086,10.8,23.3,11111222
ADCP,ioos:station:wmo:42388:1,2021-04-01T18:00:00Z,27.7297,-91.1086,11.0,23.3,11111222
ADCP,ioos:station:wmo:42388:1,2021-04-01T18:10:00Z,27.7297,-91.1086,10.9,23.4,11111222
ADCP,ioos:station:wmo:42388:1,2021-04-01T18:20:00Z,27.7297,-91.1086,11.0,23.4,11111222
ADCP,ioos:station:wmo:42388:1,2021-04-01T18:30:00Z,27.7297,-91.1086,10.9,23.4,11111222
ADCP,ioos:station:wmo:42388:1,2021-04-01T18:40:00Z,27.7297,-91.1086,11.0,23.4,11111222
ADCP,ioos:station:wmo:42388:1,2021-04-01T18:50:00Z,27.7297,-91.1086,10.9,23.4,11111222
ADCP,ioos:station:wmo:42388:1,2021-04-01T19:00:00Z,27.7297,-91.1086,10.9,23.4,11111222
ADCP,ioos:station:wmo:42388:1,2021-04-01T19:10:00Z,27.7297,-91.1086,11.0,23.4,11111222
ADCP,ioos:station:wmo:42388:1,2021-04-01T19:20:00Z,27.7297,-91.1086,11.0,23.4,11111222
ADCP,ioos:station:wmo:42388:1,2021-04-01T19:30:00Z,27.7297,-91.1086,11.0,23.4,11111222
ADCP,ioos:station:wmo:42388:1,2021-04-01T19:40:00Z,27.7297,-91.1086,10.9,23.4,11111222
ADCP,ioos:station:wmo:42388:1,2021-04-01T19:50:00Z,27.7297,-91.1086,11.0,23.4,11111222
ADCP,ioos:station:wmo:42388:1,2021-04-01T20:00:00Z,27.7297,-91.1086,11.0,23.4,11111222
ADCP,ioos:station:wmo:42388:1,2021-04-01T20:10:00Z,27.7297,-91.1086,11.1,23.4,11111222
ADCP,ioos:station:wmo:42388:1,2021-04-01T20:20:00Z,27.7297,-91.1086,11.0,23.4,11111222
ADCP,ioos:station:wmo:42388:1,2021-04-01T20:30:00Z,27.7297,-91.1086,10.9,23.4,11111222
ADCP,ioos:station:wmo:42388:1,2021-04-01T20:40:00Z,27.7297,-91.1086,11.0,23.4,11111222
ADCP,ioos:station:wmo:42388:1,2021-04-01T20:50:00Z,27.7297,-91.1086,11.0,23.4,11111222
ADCP,ioos:station:wmo:42388:1,2021-04-01T21:00:00Z,27.7297,-91.1086,11.1,23.4,11111222
ADCP,ioos:station:wmo:42388:1,2021-04-01T21:10:00Z,27.7297,-91.1086,10.9,23.4,11111222
ADCP,ioos:station:wmo:42388:1,2021-04-01T21:20:00Z,27.7297,-91.1086,11.0,23.4,11111222
ADCP,ioos:station:wmo:42388:1,2021-04-01T21:30:00Z,27.7297,-91.1086,11.0,23.4,11111222
ADCP,ioos:station:wmo:42388:1,2021-04-01T21:40:00Z,27.7297,-91.1086,11.1,23.4,11111222
ADCP,ioos:station:wmo:42388:1,2021-04-01T21:50:00Z,27.7297,-91.1086,11.0,23.4,11111222
ADCP,ioos:station:wmo:42388:1,2021-04-01T22:00:00Z,27.7297,-91.1086,11.0,23.4,11111222
ADCP,ioos:station:wmo:42388:1,2021-04-01T22:10:00Z,27.7297,-91.1086,11.0,23.4,11111222
ADCP,ioos:station:wmo:42388:1,2021-04-01T22:20:00Z,27.7297,-91.1086,11.1,23.4,11111222
ADCP,ioos:station:wmo:42388:1,2021-04-01T22:30:00Z,27.7297,-91.1086,11.0,23.4,11111222
ADCP,ioos:station:wmo:42388:1,2021-04-01T22:40:00Z,27.7297,-91.1086,10.9,23.4,11111222
ADCP,ioos:station:wmo:42388:1,2021-04-01T22:50:00Z,27.7297,-91.1086,10.9,23.4,11111222
ADCP,ioos:station:wmo:42388:1,2021-04-01T23:00:00Z,27.7297,-91.1086,11.0,23.4,11111222
ADCP,ioos:station:wmo:42388:1,2021-04-01T23:10:00Z,27.7297,-91.1086,10.9,23.4,11111222
ADCP,ioos:station:wmo:42388:1,2021-04-01T23:20:00Z,27.7297,-91.1086,11.1,23.4,11111222
ADCP,ioos:station:wmo:42388:1,2021-04-01T23:30:00Z,27.7297,-91.1086,10.9,23.4,11111222
ADCP,ioos:station:wmo:42388:1,2021-04-01T23:40:00Z,27.7297,-91.1086,11.1,23.4,11111222
ADCP,ioos:station:wmo:42388:1,2021-04-01T23:50:00Z,27.7297,-91.1086,11.2,23.4,11111222
ADCP,ioos:station:wmo:42388:1,2021-04-02T00:00:00Z,27.7297,-91.1086,10.9,23.4,11111222
ADCP,ioos:station:wmo:42388:1,2021-04-02T00:10:00Z,27.7297,-91.1086,10.9,23.4,11111222
ADCP,ioos:station:wmo:42388:1,2021-04-02T00:20:00Z,27.7297,-91.1086,10.9,23.4,11111222
ADCP,ioos:station:wmo:42388:1,2021-04-02T00:30:00Z,27.7297,-91.1086,11.1,23.4,11111222
ADCP,ioos:station:wmo:42388:1,2021-04-02T00:41:00Z,27.7297,-91.1086,10.9,23.4,11111222
ADCP,ioos:station:wmo:42388:1,2021-04-02T00:51:00Z,27.7297,-91.1086,11.0,23.4,11111222
ADCP,ioos:station:wmo:42388:1,2021-04-02T01:01:00Z,27.7297,-91.1086,10.8,23.4,11111222
ADCP,ioos:station:wmo:42388:1,2021-04-02T01:11:00Z,27.7297,-91.1086,10.9,23.4,11111222
ADCP,ioos:station:wmo:42388:1,2021-04-02T01:21:00Z,27.7297,-91.1086,11.0,23.4,11111222
ADCP,ioos:station:wmo:42388:1,2021-04-02T01:31:00Z,27.7297,-91.1086,11.0,23.4,11111222
ADCP,ioos:station:wmo:42388:1,2021-04-02T01:41:00Z,27.7297,-91.1086,11.0,23.4,11111222
ADCP,ioos:station:wmo:42388:1,2021-04-02T01:51:00Z,27.7297,-91.1086,11.2,23.4,11111222
ADCP,ioos:station:wmo:42388:1,2021-04-02T02:01:00Z,27.7297,-91.1086,11.0,23.4,11111222
ADCP,ioos:station:wmo:42388:1,2021-04-02T02:11:00Z,27.7297,-91.1086,11.0,23.3,11111222
ADCP,ioos:station:wmo:42388:1,2021-04-02T02:21:00Z,27.7297,-91.1086,10.8,23.3,11111222
ADCP,ioos:station:wmo:42388:1,2021-04-02T02:31:00Z,27.7297,-91.1086,10.9,23.3,11111222
ADCP,ioos:station:wmo:42388:1,2021-04-02T02:41:00Z,27.7297,-91.1086,10.9,23.3,11111222
ADCP,ioos:station:wmo:42388:1,2021-04-02T02:51:00Z,27.7297,-91.1086,11.0,23.3,11111222
ADCP,ioos:station:wmo:42388:1,2021-04-02T03:01:00Z,27.7297,-91.1086,11.0,23.3,11111222
ADCP,ioos:station:wmo:42388:1,2021-04-02T03:11:00Z,27.7297,-91.1086,11.0,23.3,11111222
ADCP,ioos:station:wmo:42388:1,2021-04-02T03:21:00Z,27.7297,-91.1086,11.0,23.3,11111222
ADCP,ioos:station:wmo:42388:1,2021-04-02T03:31:00Z,27.7297,-91.1086,10.8,23.3,11111222
ADCP,ioos:station:wmo:42388:1,2021-04-02T03:41:00Z,27.7297,-91.1086,11.0,23.3,11111222
ADCP,ioos:station:wmo:42388:1,2021-04-02T03:51:00Z,27.7297,-91.1086,10.9,23.3,11111222
ADCP,ioos:station:wmo:42388:1,2021-04-02T04:01:00Z,27.7297,-91.1086,10.9,23.3,11111222
ADCP,ioos:station:wmo:42388:1,2021-04-02T04:11:00Z,27.7297,-91.1086,10.9,23.3,11111222
ADCP,ioos:station:wmo:42388:1,2021-04-02T04:21:00Z,27.7297,-91.1086,11.0,23.3,11111222
ADCP,ioos:station:wmo:42388:1,2021-04-02T04:31:00Z,27.7297,-91.1086,11.0,23.3,11111222
ADCP,ioos:station:wmo:42388:1,2021-04-02T04:41:00Z,27.7297,-91.1086,10.9,23.3,11111222
ADCP,ioos:station:wmo:42388:1,2021-04-02T04:51:00Z,27.7297,-91.1086,10.9,23.3,11111222
ADCP,ioos:station:wmo:42388:1,2021-04-02T05:01:00Z,27.7297,-91.1086,10.9,23.3,11111222
ADCP,ioos:station:wmo:42388:1,2021-04-02T05:11:00Z,27.7297,-91.1086,11.0,23.3,11111222
ADCP,ioos:station:wmo:42388:1,2021-04-02T05:21:00Z,27.7297,-91.1086,11.1,23.3,11111222
ADCP,ioos:station:wmo:42388:1,2021-04-02T05:31:00Z,27.7297,-91.1086,10.8,23.3,11111222
ADCP,ioos:station:wmo:42388:1,2021-04-02T05:41:00Z,27.7297,-91.1086,11.0,23.3,11111222
ADCP,ioos:station:wmo:42388:1,2021-04-02T05:51:00Z,27.7297,-91.1086,10.8,23.3,11111222
ADCP,ioos:station:wmo:42388:1,2021-04-02T06:01:00Z,27.7297,-91.1086,10.8,23.3,11111222
ADCP,ioos:station:wmo:42388:1,2021-04-02T06:11:00Z,27.7297,-91.1086,11.0,23.3,11111222
ADCP,ioos:station:wmo:42388:1,2021-04-02T06:21:00Z,27.7297,-91.1086,11.1,23.3,11111222
ADCP,ioos:station:wmo:42388:1,2021-04-02T06:31:00Z,27.7297,-91.1086,11.0,23.3,11111222
ADCP,ioos:station:wmo:42388:1,2021-04-02T06:41:00Z,27.7297,-91.1086,11.0,23.3,11111222
ADCP,ioos:station:wmo:42388:1,2021-04-02T06:51:00Z,27.7297,-91.1086,10.9,23.3,11111222
ADCP,ioos:station:wmo:42388:1,2021-04-02T07:01:00Z,27.7297,-91.1086,11.0,23.3,11111222
ADCP,ioos:station:wmo:42388:1,2021-04-02T07:11:00Z,27.7297,-91.1086,11.1,23.3,11111222
ADCP,ioos:station:wmo:42388:1,2021-04-02T07:21:00Z,27.7297,-91.1086,11.0,23.2,11111222
ADCP,ioos:station:wmo:42388:1,2021-04-02T07:31:00Z,27.7297,-91.1086,10.8,23.2,11111222
ADCP,ioos:station:wmo:42388:1,2021-04-02T07:41:00Z,27.7297,-91.1086,10.7,23.2,11111222
ADCP,ioos:station:wmo:42388:1,2021-04-02T07:51:00Z,27.7297,-91.1086,11.0,23.2,11111222
ADCP,ioos:station:wmo:42388:1,2021-04-02T08:01:00Z,27.7297,-91.1086,11.0,23.2,11111222
ADCP,ioos:station:wmo:42388:1,2021-04-02T08:11:00Z,27.7297,-91.1086,10.9,23.2,11111222
ADCP,ioos:station:wmo:42388:1,2021-04-02T08:21:00Z,27.7297,-91.1086,10.9,23.2,11111222
ADCP,ioos:station:wmo:42388:1,2021-04-02T08:31:00Z,27.7297,-91.1086,10.9,23.2,11111222
ADCP,ioos:station:wmo:42388:1,2021-04-02T08:41:00Z,27.7297,-91.1086,10.9,23.2,11111222
ADCP,ioos:station:wmo:42388:1,2021-04-02T08:51:00Z,27.7297,-91.1086,10.9,23.2,11111222
ADCP,ioos:station:wmo:42388:1,2021-04-02T09:01:00Z,27.7297,-91.1086,10.9,23.2,11111222
ADCP,ioos:station:wmo:42388:1,2021-04-02T09:11:00Z,27.7297,-91.1086,11.0,23.2,11111222
ADCP,ioos:station:wmo:42388:1,2021-04-02T09:21:00Z,27.7297,-91.1086,10.8,23.2,11111222
ADCP,ioos:station:wmo:42388:1,2021-04-02T09:31:00Z,27.7297,-91.1086,10.9,23.2,11111222
ADCP,ioos:station:wmo:42388:1,2021-04-02T09:41:00Z,27.7297,-91.1086,10.9,23.2,11111222
ADCP,ioos:station:wmo:42388:1,2021-04-02T09:51:00Z,27.7297,-91.1086,10.8,23.2,11111222
ADCP,ioos:station:wmo:42388:1,2021-04-02T10:01:00Z,27.7297,-91.1086,10.8,23.2,11111222
ADCP,ioos:station:wmo:42388:1,2021-04-02T10:11:00Z,27.7297,-91.1086,10.9,23.2,11111222
ADCP,ioos:station:wmo:42388:1,2021-04-02T10:21:00Z,27.7297,-91.1086,11.0,23.2,11111222
ADCP,ioos:station:wmo:42388:1,2021-04-02T10:31:00Z,27.7297,-91.1086,11.1,23.2,11111222
ADCP,ioos:station:wmo:42388:1,2021-04-02T10:41:00Z,27.7297,-91.1086,10.9,23.2,11111222
ADCP,ioos:station:wmo:42388:1,2021-04-02T10:51:00Z,27.7297,-91.1086,10.9,23.2,11111222
ADCP,ioos:station:wmo:42388:1,2021-04-02T11:01:00Z,27.7297,-91.1086,10.9,23.2,11111222
ADCP,ioos:station:wmo:42388:1,2021-04-02T11:11:00Z,27.7297,-91.1086,10.9,23.2,11111222
ADCP,ioos:station:wmo:42388:1,2021-04-02T11:21:00Z,27.7297,-91.1086,11.0,23.2,11111222
ADCP,ioos:station:wmo:42388:1,2021-04-02T11:31:00Z,27.7297,-91.1086,10.7,23.2,11111222
ADCP,ioos:station:wmo:42388:1,2021-04-02T11:41:00Z,27.7297,-91.1086,10.8,23.2,11111222
ADCP,ioos:station:wmo:42388:1,2021-04-02T11:51:00Z,27.7297,-91.1086,11.0,23.3,11111222
ADCP,ioos:station:wmo:42388:1,2021-04-02T12:01:00Z,27.7297,-91.1086,11.0,23.3,11111222
ADCP,ioos:station:wmo:42388:1,2021-04-03T11:55:00Z,27.7297,-91.1086,1.0,17.8,11111222
ADCP,ioos:station:wmo:42388:1,2021-04-03T12:05:00Z,27.7297,-91.1086,0.9,17.9,11111222
ADCP,ioos:station:wmo:42388:1,2021-04-03T12:15:00Z,27.7297,-91.1086,0.9,18.0,11111222
ADCP,ioos:station:wmo:42388:1,2021-04-03T12:25:00Z,27.7297,-91.1086,0.9,18.3,11111222
ADCP,ioos:station:wmo:42388:1,2021-04-03T13:11:00Z,27.7297,-91.1086,0.8,18.5,11111222
ADCP,ioos:station:wmo:42388:1,2021-04-03T13:21:00Z,27.7297,-91.1086,0.9,18.8,11111222
ADCP,ioos:station:wmo:42388:1,2021-04-03T13:31:00Z,27.7297,-91.1086,1.1,19.0,11111222
ADCP,ioos:station:wmo:42388:1,2021-04-03T13:41:00Z,27.7297,-91.1086,1.0,19.2,11111222
ADCP,ioos:station:wmo:42388:1,2021-04-03T13:51:00Z,27.7297,-91.1086,1.2,19.4,11111222
ADCP,ioos:station:wmo:42388:1,2021-04-03T14:01:00Z,27.7297,-91.1086,1.0,19.6,11111222
ADCP,ioos:station:wmo:42388:1,2021-04-03T14:11:00Z,27.7297,-91.1086,0.9,19.8,11111222
ADCP,ioos:station:wmo:42388:1,2021-04-03T14:21:00Z,27.7297,-91.1086,1.0,20.0,11111222
ADCP,ioos:station:wmo:42388:1,2021-04-03T14:31:00Z,27.7297,-91.1086,0.7,20.2,11111222
ADCP,ioos:station:wmo:42388:1,2021-04-03T14:41:00Z,27.7297,-91.1086,0.6,20.3,11111222
ADCP,ioos:station:wmo:42388:1,2021-04-03T14:51:00Z,27.7297,-91.1086,0.7,20.3,11111222
ADCP,ioos:station:wmo:42388:1,2021-04-03T15:01:00Z,27.7297,-91.1086,5.8,21.4,11111222
ADCP,ioos:station:wmo:42388:1,2021-04-03T15:11:00Z,27.7297,-91.1086,15.8,23.0,11111222
ADCP,ioos:station:wmo:42388:1,2021-04-03T15:21:00Z,27.7297,-91.1086,15.9,23.0,11111222
ADCP,ioos:station:wmo:42388:1,2021-04-03T15:31:00Z,27.7297,-91.1086,15.6,23.0,11111222
ADCP,ioos:station:wmo:42388:1,2021-04-03T15:41:00Z,27.7297,-91.1086,15.5,23.1,11111222
ADCP,ioos:station:wmo:42388:1,2021-04-03T15:51:00Z,27.7297,-91.1086,15.8,23.1,11111222
ADCP,ioos:station:wmo:42388:1,2021-04-03T16:01:00Z,27.7297,-91.1086,15.4,23.1,11111222
ADCP,ioos:station:wmo:42388:1,2021-04-03T16:11:00Z,27.7297,-91.1086,15.6,23.1,11111222
ADCP,ioos:station:wmo:42388:1,2021-04-03T16:21:00Z,27.7297,-91.1086,15.4,23.1,11111222
ADCP,ioos:station:wmo:42388:1,2021-04-03T16:31:00Z,27.7297,-91.1086,15.7,23.1,11111222
ADCP,ioos:station:wmo:42388:1,2021-04-03T16:41:00Z,27.7297,-91.1086,15.8,23.1,11111222
ADCP,ioos:station:wmo:42388:1,2021-04-03T16:51:00Z,27.7297,-91.1086,15.5,23.1,11111222
ADCP,ioos:station:wmo:42388:1,2021-04-03T17:01:00Z,27.7297,-91.1086,15.5,23.1,11111222
ADCP,ioos:station:wmo:42388:1,2021-04-03T17:11:00Z,27.7297,-91.1086,15.6,23.1,11111222
ADCP,ioos:station:wmo:42388:1,2021-04-03T17:21:00Z,27.7297,-91.1086,15.7,23.1,11111222
ADCP,ioos:station:wmo:42388:1,2021-04-03T17:31:00Z,27.7297,-91.1086,15.5,23.1,11111222
ADCP,ioos:station:wmo:42388:1,2021-04-03T17:41:00Z,27.7297,-91.1086,15.7,23.1,11111222
ADCP,ioos:station:wmo:42388:1,2021-04-03T17:51:00Z,27.7297,-91.1086,15.6,23.1,11111222
ADCP,ioos:station:wmo:42388:1,2021-04-03T18:01:00Z,27.7297,-91.1086,15.5,23.1,11111222
ADCP,ioos:station:wmo:42388:1,2021-04-03T18:11:00Z,27.7297,-91.1086,15.5,23.2,11111222
ADCP,ioos:station:wmo:42388:1,2021-04-03T18:21:00Z,27.7297,-91.1086,15.4,23.2,11111222
ADCP,ioos:station:wmo:42388:1,2021-04-03T18:31:00Z,27.7297,-91.1086,15.2,23.2,11111222
ADCP,ioos:station:wmo:42388:1,2021-04-03T18:41:00Z,27.7297,-91.1086,15.4,23.2,11111222
ADCP,ioos:station:wmo:42388:1,2021-04-03T18:51:00Z,27.7297,-91.1086,15.5,23.2,11111222
ADCP,ioos:station:wmo:42388:1,2021-04-03T19:01:00Z,27.7297,-91.1086,15.4,23.2,11111222
ADCP,ioos:station:wmo:42388:1,2021-04-03T19:11:00Z,27.7297,-91.1086,15.4,23.2,11111222
ADCP,ioos:station:wmo:42388:1,2021-04-03T19:21:00Z,27.7297,-91.1086,15.6,23.3,11111222
ADCP,ioos:station:wmo:42388:1,2021-04-03T19:31:00Z,27.7297,-91.1086,15.4,23.3,11111222
ADCP,ioos:station:wmo:42388:1,2021-04-03T19:41:00Z,27.7297,-91.1086,15.7,23.3,11111222
ADCP,ioos:station:wmo:42388:1,2021-04-03T19:51:00Z,27.7297,-91.1086,15.5,23.3,11111222
ADCP,ioos:station:wmo:42388:1,2021-04-03T20:01:00Z,27.7297,-91.1086,15.3,23.3,11111222
ADCP,ioos:station:wmo:42388:1,2021-04-03T20:11:00Z,27.7297,-91.1086,15.6,23.3,11111222
ADCP,ioos:station:wmo:42388:1,2021-04-03T20:21:00Z,27.7297,-91.1086,15.4,23.3,11111222
ADCP,ioos:station:wmo:42388:1,2021-04-03T20:31:00Z,27.7297,-91.1086,15.5,23.4,11111222
ADCP,ioos:station:wmo:42388:1,2021-04-03T20:41:00Z,27.7297,-91.1086,15.8,23.4,11111222
ADCP,ioos:station:wmo:42388:1,2021-04-03T20:51:00Z,27.7297,-91.1086,15.8,23.4,11111222
ADCP,ioos:station:wmo:42388:1,2021-04-03T21:01:00Z,27.7297,-91.1086,15.8,23.4,11111222
ADCP,ioos:station:wmo:42388:1,2021-04-03T21:11:00Z,27.7297,-91.1086,15.7,23.5,11111222
ADCP,ioos:station:wmo:42388:1,2021-04-03T21:21:00Z,27.7297,-91.1086,15.5,23.5,11111222
ADCP,ioos:station:wmo:42388:1,2021-04-03T21:31:00Z,27.7297,-91.1086,15.7,23.5,11111222